Regional Weather Roundup
Issued by NWS

Home | Current Version | Previous Version | Text Only | Print | Product List | Glossary Off
Versions: 1 2 3 4 5 6 7 8 9 10 11 12 13 14 15 16 17 18 19 20 21 22 23 24 25 26 27

000
ASUS45 KCYS 300210
RWRWY

WYOMING REGIONAL WEATHER ROUNDUP
NATIONAL WEATHER SERVICE CHEYENNE WY
800 PM MDT SAT APR 29 2017

NOTE:  "FAIR" INDICATES FEW OR NO CLOUDS BELOW 12,000 FEET
WITH NO SIGNIFICANT WEATHER AND/OR OBSTRUCTIONS TO VISIBILITY.

WYZ001-300300-
YELLOWSTONE NATIONAL PARK

CITY           SKY/WX    TMP DP  RH WIND       PRES   REMARKS
LK YELLOWSTONE   N/A     32  21  64 CALM      30.18F
W YELLOWSTONE  NOT AVBL

$$
WYZ002>013-054>058-071-098>099-300300-
NORTHERN WYOMING

CITY           SKY/WX    TMP DP  RH WIND       PRES   REMARKS
JACKSON          N/A     43  16  33 W10       30.16S
CODY           FAIR      44  26  49 S6        30.14S
GREYBULL       FAIR      50  20  30 S8        30.13S
WORLAND        FAIR      44  25  47 S9        30.15S
SHERIDAN       FAIR      38  30  73 S6        30.17F WCI  33
BUFFALO        FAIR      35  23  61 S8        30.18F WCI  29
GILLETTE       FAIR      33  25  72 W6        30.18F WCI  28
HULETT         FAIR      41  21  45 E6        30.17S
NEWCASTLE      FAIR      43  27  52 NW14G24   30.17R

$$
WYZ014>020-022>026-101>103-300300-
CENTRAL WYOMING

CITY           SKY/WX    TMP DP  RH WIND       PRES   REMARKS
BIG PINEY      FAIR      41  19  41 N13       30.16S
PINEDALE       FAIR      37  18  44 NW10      30.17R WCI  30
DUBOIS         FAIR      36  19  51 W5        30.13S WCI  32
LANDER         FAIR      32  22  66 S14       30.17S WCI  22
RIVERTON       FAIR      36  25  64 S10       30.19R WCI  28
CASPER         MOCLDY    38  21  50 SE7       30.18S WCI  33
DOUGLAS        FAIR      38  19  46 CALM      30.21R

$$
WYZ021-027>030-104>119-300300-
SOUTHERN WYOMING

CITY           SKY/WX    TMP DP  RH WIND       PRES   REMARKS
EVANSTON       FAIR      38  21  50 CALM      30.20F
KEMMERER         N/A     36  23  60 NW6       30.18F WCI  31
FORT BRIDGER   FAIR      38  24  55 W6        30.22S WCI  34
ROCK SPRINGS   FAIR      35  17  47 E5        30.18R WCI  31
DIXON            N/A     37  19  49 N17       30.18R WCI  27
RAWLINS        FAIR      32  23  69 N8        30.18S WCI  25
SARATOGA       FAIR      32  16  51 N7        30.17R WCI  26
LARAMIE        FAIR      25  15  66 CALM      30.18R
CHEYENNE       CLOUDY    32  15  49 N9        30.18R WCI  24
TORRINGTON     FAIR      42  25  50 NW7       30.18R
PINE BLUFFS    CLOUDY    34  21  60 N9        30.18S WCI  26

$$




USA.gov is the U.S. government's official web portal to all federal, state and local government web resources and services.